Weather History for Buckland, AK

Change the Weather History Date:

Saturday, March 16, 2013

  Actual Average (PASK) Record (PASK)
Temperature  
Mean Temperature 10 °F -  
Max Temperature 15 °F 6 °F 30 °F (2004)
Min Temperature 5 °F -4 °F -34 °F (2003)
Degree Days  
Heating Degree Days 55    
Moisture  
Dew Point -1 °F    
Average Humidity 63    
Maximum Humidity 92    
Minimum Humidity 48    
Precipitation  
Precipitation 0.00 in - - ()
Sea Level Pressure  
Sea Level Pressure 30.01 in    
Wind  
Wind Speed 21 mph (ESE)    
Max Wind Speed 31 mph    
Max Gust Speed 39 mph    
Visibility 10 miles    
Events      
Averages and records for this station are not official NWS values.
T = Trace of Precipitation, MM = Missing Value Source: NWS Daily Summary

Daily Weather History Graph

Daily Weather History Graph

Search for Another Location

Airport:

Trip Planner

Search our weather history database for the weather conditions in past years. The results will help you decide how hot, cold, wet, or windy it might be!

Date:

Astronomy

Mar. 16, 2013 Rise Set
Actual Time 8:58 AM AKDT 8:49 PM AKDT
Civil Twilight 8:07 AM AKDT 9:40 PM AKDT
Nautical Twilight 7:05 AM AKDT 10:42 PM AKDT
Astronomical Twilight 5:55 AM AKDT 11:54 PM AKDT
Moon 9:23 AM AKDT (3/16) 3:21 AM AKDT (3/16)
Length of Visible Light 13h 33m
Length of Day
11h 51m
Waxing Crescent, 24% of the Moon is Illuminated
Mar 16
Waxing Crescent
Mar 19
First Quarter
Mar 27
Full
Apr 2
Last Quarter
Apr 10
New

Hourly Weather History & Observations

Time (AKDT) Temp. Windchill Dew Point Humidity Pressure Visibility Wind Dir Wind Speed Gust Speed Precip Events Conditions
12:16 AM 8.6 °F -13.1 °F -0.4 °F 67% 29.85 in 10.0 mi ESE 26.5 mph 35.7 mph N/A   Unknown
12:36 AM 8.6 °F -12.7 °F -2.2 °F 62% 29.86 in 10.0 mi ESE 25.3 mph 34.5 mph N/A   Unknown
12:56 AM 8.6 °F -14.5 °F -0.4 °F 67% 29.84 in 9.0 mi ESE 31.1 mph 39.1 mph N/A   Unknown
1:16 AM 8.6 °F -13.8 °F -2.2 °F 62% 29.86 in 10.0 mi ESE 28.8 mph 36.8 mph N/A   Unknown
1:36 AM 6.8 °F -14.7 °F -2.2 °F 67% 29.88 in 10.0 mi ESE 24.2 mph 33.4 mph N/A   Unknown
1:56 AM 6.8 °F -13.8 °F -2.2 °F 67% 29.89 in 10.0 mi ESE 21.9 mph 29.9 mph N/A   Unknown
2:16 AM 6.8 °F -13.4 °F -2.2 °F 67% 29.90 in 10.0 mi ESE 20.7 mph 31.1 mph N/A   Unknown
2:36 AM 6.8 °F -13.8 °F -2.2 °F 67% 29.90 in 10.0 mi ESE 21.9 mph 31.1 mph N/A   Unknown
2:56 AM 6.8 °F -14.3 °F -2.2 °F 67% 29.90 in 10.0 mi ESE 23.0 mph 29.9 mph N/A   Unknown
3:16 AM 6.8 °F -13.8 °F -2.2 °F 67% 29.91 in 10.0 mi ESE 21.9 mph 31.1 mph N/A   Unknown
3:36 AM 6.8 °F -13.8 °F -2.2 °F 67% 29.92 in 10.0 mi ESE 21.9 mph 29.9 mph N/A   Unknown
3:56 AM 6.8 °F -9.3 °F -4.0 °F 61% 29.94 in 10.0 mi SE 12.7 mph - N/A   Unknown
4:16 AM 6.8 °F -11.3 °F -2.2 °F 67% 29.94 in 10.0 mi SE 16.1 mph 21.9 mph N/A   Unknown
4:36 AM 5.0 °F -12.3 °F -5.8 °F 61% 29.94 in 10.0 mi SSE 13.8 mph - N/A   Unknown
4:56 AM 5.0 °F -14.2 °F -4.0 °F 66% 29.94 in 10.0 mi SSE 17.3 mph - N/A   Unknown
5:16 AM 6.8 °F -13.4 °F -2.2 °F 67% 29.94 in 10.0 mi ESE 20.7 mph 24.2 mph N/A   Unknown
5:36 AM 5.0 °F -15.7 °F -5.8 °F 61% 29.94 in 10.0 mi ESE 20.7 mph 26.5 mph N/A   Unknown
5:56 AM 6.8 °F -14.7 °F -2.2 °F 67% 29.94 in 10.0 mi ESE 24.2 mph 28.8 mph N/A   Unknown
6:16 AM 6.8 °F -13.4 °F -5.8 °F 56% 29.95 in 10.0 mi ESE 20.7 mph 26.5 mph N/A   Unknown
6:36 AM 6.8 °F -12.9 °F -2.2 °F 67% 29.96 in 10.0 mi ESE 19.6 mph - N/A   Unknown
6:56 AM 6.8 °F -11.3 °F -5.8 °F 56% 29.97 in 10.0 mi ESE 16.1 mph 20.7 mph N/A   Unknown
7:16 AM 6.8 °F -11.3 °F -4.0 °F 61% 29.97 in 10.0 mi ESE 16.1 mph 20.7 mph N/A   Unknown
7:36 AM 5.0 °F -14.7 °F -4.0 °F 66% 29.97 in 10.0 mi ESE 18.4 mph 23.0 mph N/A   Unknown
7:56 AM 5.0 °F -14.2 °F -4.0 °F 66% 29.97 in 10.0 mi SE 17.3 mph 25.3 mph N/A   Unknown
8:16 AM 6.8 °F -13.8 °F -0.4 °F 72% 29.97 in 10.0 mi SE 21.9 mph 28.8 mph N/A   Unknown
8:36 AM 6.8 °F -12.9 °F -5.8 °F 56% 29.98 in 10.0 mi ESE 19.6 mph 27.6 mph N/A   Unknown
8:56 AM 6.8 °F -12.9 °F -5.8 °F 56% 29.99 in 10.0 mi SE 19.6 mph 25.3 mph N/A   Unknown
9:16 AM 6.8 °F -11.8 °F -2.2 °F 67% 29.99 in 10.0 mi ESE 17.3 mph 24.2 mph N/A   Unknown
9:36 AM 6.8 °F -10.7 °F -5.8 °F 56% 30.00 in 10.0 mi ESE 15.0 mph 21.9 mph N/A   Unknown
9:56 AM 6.8 °F -11.3 °F -2.2 °F 67% 30.00 in 10.0 mi SE 16.1 mph 25.3 mph N/A   Unknown
10:16 AM 6.8 °F -9.3 °F -2.2 °F 67% 30.02 in 10.0 mi ESE 12.7 mph 19.6 mph N/A   Unknown
10:36 AM 6.8 °F -9.3 °F -5.8 °F 56% 30.02 in 10.0 mi East 12.7 mph 18.4 mph N/A   Unknown
10:56 AM 6.8 °F -11.3 °F -2.2 °F 67% 30.02 in 10.0 mi East 16.1 mph 23.0 mph N/A   Unknown
11:16 AM 6.8 °F -13.4 °F -2.2 °F 67% 30.02 in 10.0 mi ESE 20.7 mph 26.5 mph N/A   Unknown
11:36 AM 6.8 °F -13.4 °F -5.8 °F 56% 30.01 in 10.0 mi ESE 20.7 mph 27.6 mph N/A   Unknown
11:56 AM 6.8 °F -14.3 °F 1.4 °F 79% 30.02 in 10.0 mi ESE 23.0 mph 28.8 mph N/A   Unknown
12:16 PM 8.6 °F -12.3 °F -2.2 °F 62% 30.02 in 10.0 mi ESE 24.2 mph 29.9 mph N/A   Unknown
12:36 PM 8.6 °F -11.4 °F -7.6 °F 48% 30.02 in 10.0 mi ESE 21.9 mph 28.8 mph N/A   Unknown
12:56 PM 8.6 °F -11.9 °F 6.8 °F 92% 30.02 in 10.0 mi ESE 23.0 mph 28.8 mph N/A   Unknown
1:16 PM 8.6 °F -11.9 °F 1.4 °F 73% 30.02 in 10.0 mi ESE 23.0 mph 28.8 mph N/A   Unknown
1:36 PM 8.6 °F -12.3 °F -5.8 °F 52% 30.03 in 10.0 mi ESE 24.2 mph 28.8 mph N/A   Unknown
1:56 PM 10.4 °F -9.1 °F 1.4 °F 67% 30.03 in 10.0 mi ESE 21.9 mph 29.9 mph N/A   Unknown
2:16 PM 10.4 °F -9.9 °F 1.4 °F 67% 30.03 in 10.0 mi ESE 24.2 mph 32.2 mph N/A   Unknown
2:36 PM 10.4 °F -10.7 °F 1.4 °F 67% 30.02 in 10.0 mi ESE 26.5 mph 34.5 mph N/A   Unknown
2:56 PM 12.2 °F -7.1 °F 1.4 °F 62% 30.04 in 10.0 mi ESE 23.0 mph 34.5 mph N/A   Unknown
3:16 PM 12.2 °F -7.1 °F 1.4 °F 62% 30.04 in 10.0 mi East 23.0 mph 33.4 mph N/A   Unknown
3:36 PM 12.2 °F -5.8 °F 1.4 °F 62% 30.04 in 10.0 mi East 19.6 mph 28.8 mph N/A   Unknown
3:56 PM 12.2 °F -6.3 °F 3.2 °F 67% 30.05 in 10.0 mi East 20.7 mph 25.3 mph N/A   Unknown
4:16 PM 14.0 °F -3.4 °F 3.2 °F 62% 30.04 in 10.0 mi East 19.6 mph 24.2 mph N/A   Unknown
4:36 PM 14.0 °F -3.4 °F 3.2 °F 62% 30.05 in 10.0 mi East 19.6 mph 26.5 mph N/A   Unknown
4:56 PM 14.0 °F -3.9 °F 3.2 °F 62% 30.05 in 10.0 mi East 20.7 mph 26.5 mph N/A   Unknown
5:16 PM 14.0 °F -3.0 °F 3.2 °F 62% 30.05 in 10.0 mi East 18.4 mph 27.6 mph N/A   Unknown
5:36 PM 14.0 °F -3.4 °F 3.2 °F 62% 30.05 in 10.0 mi East 19.6 mph 25.3 mph N/A   Unknown
5:56 PM 14.0 °F -3.0 °F 3.2 °F 62% 30.06 in 10.0 mi East 18.4 mph 27.6 mph N/A   Unknown
6:16 PM 14.0 °F -3.9 °F 3.2 °F 62% 30.06 in 10.0 mi East 20.7 mph 25.3 mph N/A   Unknown
6:36 PM 14.0 °F -3.4 °F 3.2 °F 62% 30.06 in 10.0 mi ESE 19.6 mph 26.5 mph N/A   Unknown
6:56 PM 15.8 °F -0.2 °F 3.2 °F 58% 30.07 in 10.0 mi East 17.3 mph 26.5 mph N/A   Unknown
7:16 PM 15.8 °F 1.4 °F 3.2 °F 58% 30.07 in 10.0 mi East 13.8 mph - N/A   Unknown
7:36 PM 14.0 °F -2.5 °F 3.2 °F 62% 30.07 in 10.0 mi East 17.3 mph 25.3 mph N/A   Unknown
7:56 PM 14.0 °F -3.4 °F 3.2 °F 62% 30.07 in 10.0 mi East 19.6 mph 28.8 mph N/A   Unknown
8:16 PM 14.0 °F -2.0 °F 3.2 °F 62% 30.08 in 10.0 mi East 16.1 mph 25.3 mph N/A   Unknown
8:36 PM 14.0 °F -3.0 °F 3.2 °F 62% 30.09 in 10.0 mi East 18.4 mph 25.3 mph N/A   Unknown
8:56 PM 12.2 °F -4.3 °F 3.2 °F 67% 30.11 in 10.0 mi East 16.1 mph 21.9 mph N/A   Unknown
9:16 PM 12.2 °F - 1.4 °F 62% 30.13 in 10.0 mi Calm Calm - N/A   Unknown
9:36 PM 12.2 °F 0.7 °F 1.4 °F 62% 30.14 in 10.0 mi SSW 8.1 mph - N/A   Unknown
9:56 PM 14.0 °F -1.4 °F 1.4 °F 57% 30.14 in 10.0 mi SSE 15.0 mph 21.9 mph N/A   Unknown
10:16 PM 12.2 °F -4.8 °F -0.4 °F 57% 30.15 in 10.0 mi ESE 17.3 mph 21.9 mph N/A   Unknown
10:36 PM 12.2 °F -2.5 °F 1.4 °F 62% 30.16 in 10.0 mi SE 12.7 mph 21.9 mph N/A   Unknown
10:56 PM 12.2 °F -1.0 °F -0.4 °F 57% 30.16 in 10.0 mi SE 10.4 mph - N/A   Unknown
11:16 PM 10.4 °F -4.1 °F -0.4 °F 62% 30.17 in 10.0 mi SSE 11.5 mph 16.1 mph N/A   Unknown
11:36 PM 10.4 °F -5.4 °F 1.4 °F 67% 30.18 in 10.0 mi SE 13.8 mph 20.7 mph N/A   Unknown
11:56 PM 10.4 °F -3.3 °F -0.4 °F 62% 30.18 in 10.0 mi SSE 10.4 mph - N/A   Unknown